Weather History for Safford, AZ

Change the Weather History Date:

Thursday, June 20, 2013

  Actual Average Record
Temperature  
Mean Temperature 84 °F -  
Max Temperature 105 °F 99 °F 111 °F (1989)
Min Temperature 64 °F 60 °F 48 °F (1979)
Cooling Degree Days 20    
Growing Degree Days 34 (Base 50)    
Moisture  
Dew Point 5 °F    
Average Humidity 7    
Maximum Humidity 13    
Minimum Humidity 4    
Precipitation  
Precipitation 0.00 in - - ()
Sea Level Pressure  
Sea Level Pressure 29.68 in    
Wind  
Wind Speed 7 mph (West)    
Max Wind Speed 23 mph    
Max Gust Speed 29 mph    
Visibility 10 miles    
Events      
Averages and records for this station are not official NWS values.
T = Trace of Precipitation, MM = Missing Value Source: NWS Daily Summary

Daily Weather History Graph

Daily Weather History Graph

Search for Another Location

Airport:

Trip Planner

Search our weather history database for the weather conditions in past years. The results will help you decide how hot, cold, wet, or windy it might be!

Date:

Astronomy

Jun. 20, 2013 Rise Set
Actual Time 5:10 AM MST 7:29 PM MST
Civil Twilight 4:41 AM MST 7:58 PM MST
Nautical Twilight 4:06 AM MST 8:33 PM MST
Astronomical Twilight 3:28 AM MST 9:11 PM MST
Moon 4:41 PM MST (6/20) 2:32 AM MST (6/20)
Length of Visible Light 15h 16m
Length of Day
14h 19m
Waxing Gibbous, 89% of the Moon is Illuminated
Jun 20
Waxing Gibbous
Jun 23
Full
Jun 29
Last Quarter
Jul 8
New
Jul 15
First Quarter

Hourly Weather History & Observations

Time (MST) Temp. Dew Point Humidity Pressure Visibility Wind Dir Wind Speed Gust Speed Precip Events Conditions
12:51 AM 73.9 °F 15.1 °F 11% 29.66 in 10.0 mi East 5.8 mph - N/A   Clear
1:51 AM 71.1 °F 12.9 °F 11% 29.66 in 10.0 mi ENE 4.6 mph - N/A   Clear
2:51 AM 69.1 °F 12.9 °F 11% 29.67 in 10.0 mi South 5.8 mph - N/A   Clear
3:51 AM 64.9 °F 12.0 °F 13% 29.69 in 10.0 mi ESE 4.6 mph - N/A   Clear
4:51 AM 66.0 °F 12.9 °F 13% 29.71 in 10.0 mi Calm Calm - N/A   Clear
5:51 AM 64.0 °F 10.9 °F 13% 29.72 in 10.0 mi South 3.5 mph - N/A   Clear
6:51 AM 75.0 °F 15.1 °F 10% 29.73 in 10.0 mi Calm Calm - N/A   Clear
7:51 AM 86.0 °F 16.0 °F 7% 29.73 in 10.0 mi East 8.1 mph - N/A   Clear
8:51 AM 89.1 °F 16.0 °F 7% 29.73 in 10.0 mi ESE 9.2 mph - N/A   Clear
9:51 AM 91.9 °F 19.9 °F 7% 29.72 in 10.0 mi Variable 4.6 mph 17.3 mph N/A   Clear
10:51 AM 97.0 °F 8.1 °F 4% 29.70 in 10.0 mi SSE 16.1 mph 24.2 mph N/A   Clear
11:51 AM 98.1 °F 3.0 °F 4% 29.70 in 10.0 mi SSE 8.1 mph - N/A   Clear
12:51 PM 100.0 °F -0.9 °F 4% 29.68 in 10.0 mi West 4.6 mph - N/A   Clear
1:51 PM 102.0 °F -4.0 °F 4% 29.66 in 10.0 mi Variable 5.8 mph 18.4 mph N/A   Clear
2:51 PM 100.9 °F -11.0 °F 4% 29.65 in 10.0 mi West 6.9 mph - N/A   Clear
3:51 PM 105.1 °F -17.0 °F 4% 29.62 in 10.0 mi NW 23.0 mph 28.8 mph N/A   Clear
4:51 PM 104.0 °F -18.9 °F 4% 29.61 in 10.0 mi West 18.4 mph 26.5 mph N/A   Clear
5:51 PM 100.9 °F -18.0 °F 4% 29.63 in 10.0 mi West 13.8 mph - N/A   Clear
6:40 PM 98.6 °F -2.2 °F 4% 29.80 in 10.0 mi NW 15.0 mph - N/A   Clear
6:51 PM 98.1 °F -0.9 °F 4% 29.62 in 10.0 mi WNW 15.0 mph - N/A   Clear
7:51 PM 91.9 °F 3.0 °F 4% 29.63 in 10.0 mi NW 11.5 mph - N/A   Clear
8:51 PM 84.9 °F 3.9 °F 5% 29.66 in 10.0 mi WNW 9.2 mph - N/A   Clear
9:51 PM 84.0 °F 8.1 °F 6% 29.68 in 10.0 mi NNW 10.4 mph - N/A   Clear
10:51 PM 79.0 °F 7.0 °F 6% 29.69 in 10.0 mi NNW 9.2 mph - N/A   Clear
11:51 PM 78.1 °F 10.0 °F 7% 29.70 in 10.0 mi NW 10.4 mph - N/A   Clear